• In Uzbekistan
  • List of Countries
  • For 7 days
  • Water Temperature
  • Satellite Maps
  • Weather Map
  • Weather Widgets
  • user-avatar
    Login

    Hourly Weather Ashtarak

    Today, 24 April, Monday

    Time Temperature Precipitation Wind Pressure Humidity
    00:00 +11°C° 0.3 mm 3 mps 653 mmHg 72%
    01:00 +12°C° 0.3 mm 2 mps 653 mmHg 74%
    02:00 +10°C° 0.3 mm 2 mps 653 mmHg 77%
    03:00 +12°C° 0 mm 2 mps 653 mmHg 77%
    04:00 +10°C° 0.6 mm 2 mps 653 mmHg 78%
    05:00 +10°C° 0.6 mm 2 mps 653 mmHg 79%
    06:00 +9°C° 0.6 mm 2 mps 653 mmHg 80%
    07:00 +10°C° 0.1 mm 2 mps 653 mmHg 73%
    08:00 +13°C° 0.1 mm 2 mps 653 mmHg 66%
    09:00 +14°C° 0 mm 3 mps 653 mmHg 58%
    10:00 +14°C° 0.2 mm 3 mps 653 mmHg 52%
    11:00 +15°C° 0.2 mm 4 mps 654 mmHg 46%
    12:00 +16°C° 0.2 mm 5 mps 654 mmHg 40%
    13:00 +16°C° 0.1 mm 5 mps 654 mmHg 37%
    14:00 +16°C° 0.1 mm 5 mps 654 mmHg 34%
    15:00 +17°C° 0.1 mm 5 mps 654 mmHg 32%
    16:00 +15°C° 0 mm 4 mps 654 mmHg 36%
    17:00 +14°C° 0 mm 3 mps 654 mmHg 41%
    18:00 +14°C° 0 mm 2 mps 655 mmHg 45%
    19:00 +12°C° 0 mm 2 mps 655 mmHg 52%
    20:00 +9°C° 0 mm 2 mps 655 mmHg 59%
    21:00 +8°C° 0 mm 2 mps 655 mmHg 66%
    22:00 +7°C° 0 mm 2 mps 656 mmHg 68%
    23:00 +7°C° 0 mm 2 mps 656 mmHg 71%

    Tomorrow, 25 April, Tuesday

    Time Temperature Precipitation Wind Pressure Humidity
    00:00 +6°C° 0 mm 2 mps 656 mmHg 74%
    01:00 +6°C° 0 mm 2 mps 656 mmHg 74%
    02:00 +6°C° 0 mm 1 mps 656 mmHg 74%
    03:00 +6°C° 0 mm 1 mps 656 mmHg 74%
    04:00 +6°C° 0 mm 1 mps 657 mmHg 72%
    05:00 +6°C° 0 mm 1 mps 657 mmHg 69%
    06:00 +6°C° 0 mm 1 mps 657 mmHg 67%
    07:00 +8°C° 0 mm 1 mps 658 mmHg 59%
    08:00 +9°C° 0 mm 2 mps 658 mmHg 51%
    09:00 +12°C° 0 mm 2 mps 659 mmHg 42%
    10:00 +13°C° 0 mm 2 mps 659 mmHg 39%
    11:00 +14°C° 0 mm 2 mps 659 mmHg 36%
    12:00 +15°C° 0 mm 2 mps 659 mmHg 32%
    13:00 +14°C° 0 mm 3 mps 659 mmHg 32%
    14:00 +14°C° 0 mm 3 mps 659 mmHg 32%
    15:00 +14°C° 0 mm 3 mps 660 mmHg 32%
    16:00 +13°C° 0 mm 3 mps 660 mmHg 37%
    17:00 +12°C° 0 mm 3 mps 660 mmHg 42%
    18:00 +11°C° 0 mm 3 mps 660 mmHg 47%
    19:00 +9°C° 0 mm 3 mps 660 mmHg 54%
    20:00 +7°C° 0 mm 3 mps 661 mmHg 61%
    21:00 +6°C° 0 mm 2 mps 661 mmHg 69%
    22:00 +5°C° 0 mm 2 mps 661 mmHg 70%
    23:00 +4°C° 0 mm 2 mps 661 mmHg 71%

    Day after tomorrow, 26 April, Wednesday

    Time Temperature Precipitation Wind Pressure Humidity
    00:00 +4°C° 0 mm 2 mps 662 mmHg 73%
    01:00 +4°C° 0 mm 2 mps 662 mmHg 73%
    02:00 +3°C° 0 mm 2 mps 662 mmHg 72%
    03:00 +3°C° 0 mm 2 mps 662 mmHg 72%
    04:00 +3°C° 0 mm 2 mps 662 mmHg 71%
    05:00 +4°C° 0 mm 1 mps 662 mmHg 69%
    06:00 +4°C° 0 mm 1 mps 662 mmHg 68%
    07:00 +7°C° 0 mm 1 mps 663 mmHg 59%
    08:00 +9°C° 0 mm 1 mps 663 mmHg 49%
    09:00 +12°C° 0 mm 1 mps 664 mmHg 40%
    10:00 +13°C° 0 mm 1 mps 664 mmHg 38%
    11:00 +14°C° 0 mm 2 mps 664 mmHg 36%
    12:00 +15°C° 0 mm 2 mps 663 mmHg 33%
    13:00 +16°C° 0 mm 2 mps 663 mmHg 35%
    14:00 +16°C° 0 mm 2 mps 663 mmHg 36%
    15:00 +16°C° 0 mm 2 mps 663 mmHg 37%
    16:00 +15°C° 0 mm 2 mps 662 mmHg 43%
    17:00 +14°C° 0 mm 2 mps 662 mmHg 49%
    18:00 +12°C° 0 mm 2 mps 662 mmHg 55%
    19:00 +10°C° 0 mm 2 mps 663 mmHg 61%
    20:00 +8°C° 0 mm 2 mps 663 mmHg 67%
    21:00 +7°C° 0 mm 2 mps 663 mmHg 73%
    22:00 +6°C° 0 mm 2 mps 663 mmHg 75%
    23:00 +6°C° 0 mm 2 mps 663 mmHg 76%

    27 April, Thursday

    Time Temperature Precipitation Wind Pressure Humidity
    00:00 +5°C° 0 mm 2 mps 663 mmHg 78%
    01:00 +5°C° 0 mm 2 mps 663 mmHg 78%
    02:00 +5°C° 0 mm 2 mps 663 mmHg 79%
    03:00 +4°C° 0 mm 2 mps 663 mmHg 80%
    04:00 +5°C° 0 mm 1 mps 663 mmHg 78%
    05:00 +6°C° 0 mm 1 mps 663 mmHg 76%
    06:00 +6°C° 0 mm 1 mps 663 mmHg 74%
    07:00 +8°C° 0 mm 1 mps 663 mmHg 64%
    08:00 +10°C° 0 mm 1 mps 663 mmHg 55%
    09:00 +13°C° 0 mm 1 mps 664 mmHg 45%
    10:00 +14°C° 0 mm 2 mps 663 mmHg 41%
    11:00 +15°C° 0 mm 2 mps 663 mmHg 37%
    12:00 +17°C° 0 mm 2 mps 663 mmHg 33%
    13:00 +17°C° 0 mm 2 mps 663 mmHg 33%
    14:00 +17°C° 0 mm 2 mps 662 mmHg 33%
    15:00 +18°C° 0 mm 2 mps 662 mmHg 33%
    16:00 +16°C° 0 mm 2 mps 662 mmHg 39%
    17:00 +15°C° 0 mm 2 mps 662 mmHg 45%
    18:00 +14°C° 0 mm 2 mps 661 mmHg 51%
    19:00 +12°C° 0 mm 2 mps 662 mmHg 58%
    20:00 +9°C° 0 mm 2 mps 662 mmHg 66%
    21:00 +8°C° 0 mm 2 mps 662 mmHg 73%
    22:00 +7°C° 0 mm 2 mps 662 mmHg 74%
    23:00 +7°C° 0 mm 2 mps 662 mmHg 76%

    28 April, Friday

    Time Temperature Precipitation Wind Pressure Humidity
    00:00 +6°C° 0 mm 2 mps 662 mmHg 77%
    01:00 +6°C° 0 mm 2 mps 662 mmHg 78%
    02:00 +6°C° 0 mm 2 mps 662 mmHg 79%
    03:00 +6°C° 0 mm 2 mps 662 mmHg 80%
    04:00 +7°C° 0 mm 1 mps 662 mmHg 79%
    05:00 +7°C° 0 mm 1 mps 662 mmHg 78%
    06:00 +7°C° 0 mm 1 mps 662 mmHg 77%
    07:00 +10°C° 0 mm 1 mps 662 mmHg 67%
    08:00 +12°C° 0 mm 1 mps 663 mmHg 57%
    09:00 +15°C° 0 mm 1 mps 663 mmHg 48%
    10:00 +16°C° 0 mm 1 mps 663 mmHg 45%
    11:00 +17°C° 0 mm 2 mps 662 mmHg 42%
    12:00 +18°C° 0 mm 2 mps 662 mmHg 39%
    13:00 +19°C° 0.1 mm 2 mps 662 mmHg 39%
    14:00 +19°C° 0.1 mm 2 mps 661 mmHg 39%
    15:00 +19°C° 0.1 mm 2 mps 661 mmHg 38%
    16:00 +18°C° 0.1 mm 2 mps 661 mmHg 43%
    17:00 +18°C° 0.1 mm 1 mps 660 mmHg 49%
    18:00 +16°C° 0.1 mm 1 mps 660 mmHg 54%
    19:00 +14°C° 0.1 mm 1 mps 660 mmHg 61%
    20:00 +12°C° 0.1 mm 2 mps 660 mmHg 68%
    21:00 +9°C° 0.1 mm 2 mps 660 mmHg 75%
    22:00 +9°C° 0.1 mm 2 mps 660 mmHg 77%
    23:00 +9°C° 0.1 mm 1 mps 660 mmHg 79%

    29 April, Saturday

    Time Temperature Precipitation Wind Pressure Humidity
    00:00 +9°C° 0.1 mm 1 mps 659 mmHg 81%
    01:00 +8°C° 0 mm 1 mps 659 mmHg 82%
    02:00 +8°C° 0 mm 1 mps 659 mmHg 83%
    03:00 +7°C° 0 mm 1 mps 659 mmHg 83%
    04:00 +8°C° 0 mm 1 mps 659 mmHg 81%
    05:00 +8°C° 0 mm 1 mps 659 mmHg 78%
    06:00 +8°C° 0 mm 0 mps 659 mmHg 75%
    07:00 +12°C° 0 mm 1 mps 660 mmHg 65%
    08:00 +14°C° 0 mm 1 mps 660 mmHg 55%
    09:00 +18°C° 0 mm 1 mps 661 mmHg 45%
    10:00 +18°C° 0 mm 2 mps 660 mmHg 41%
    11:00 +20°C° 0 mm 2 mps 660 mmHg 37%
    12:00 +21°C° 0 mm 2 mps 660 mmHg 33%
    13:00 +21°C° 0.1 mm 2 mps 660 mmHg 33%
    14:00 +21°C° 0.1 mm 2 mps 659 mmHg 32%
    15:00 +23°C° 0.1 mm 2 mps 659 mmHg 32%
    16:00 +20°C° 0.2 mm 2 mps 659 mmHg 39%
    17:00 +19°C° 0.2 mm 2 mps 659 mmHg 45%
    18:00 +19°C° 0.2 mm 1 mps 658 mmHg 52%
    19:00 +16°C° 0.1 mm 1 mps 658 mmHg 57%
    20:00 +14°C° 0.1 mm 1 mps 658 mmHg 62%
    21:00 +12°C° 0.1 mm 1 mps 658 mmHg 67%
    22:00 +11°C° 0.1 mm 1 mps 657 mmHg 69%
    23:00 +10°C° 0.1 mm 1 mps 657 mmHg 71%
    Show more